N463TD KFDK-KOXC

Flight info

Callsign N463TD
Flight time N/A
Altitude 7000
Route LRP SBJ VFR NEW YORK CLASS B
Aircraft AEST/L-SDFGRY/S

Departure

Time 2026-04-27 20:06
Airport Frederick Municipal Airport (KFDK)

Arrival

Time N/A
Airport Waterbury Oxford Airport (KOXC)
Time Latitude Longitude Altitude Speed Heading
2026-04-27 19:53 39.46640 -77.01695 776 ft 0 kts 206°
2026-04-27 20:00 39.46634 -77.01699 775 ft 2 kts 199°
2026-04-27 20:01 39.46610 -77.01659 776 ft 9 kts 119°
2026-04-27 20:01 39.46631 -77.01615 776 ft 9 kts 106°
2026-04-27 20:01 39.46596 -77.01517 777 ft 8 kts 99°
2026-04-27 20:01 39.46573 -77.01470 778 ft 0 kts 186°
2026-04-27 20:04 39.46567 -77.01475 777 ft 6 kts 232°
2026-04-27 20:04 39.46571 -77.01499 777 ft 0 kts 304°
2026-04-27 20:05 39.46578 -77.01512 777 ft 14 kts 306°
2026-04-27 20:05 39.46805 -77.01938 773 ft 91 kts 304°
2026-04-27 20:06 39.47222 -77.02642 953 ft 106 kts 314°
2026-04-27 20:06 39.47830 -77.03395 1113 ft 135 kts 323°
2026-04-27 20:06 39.48743 -77.03638 1279 ft 153 kts 27°
2026-04-27 20:06 39.49430 -77.02636 1738 ft 145 kts 72°
2026-04-27 20:07 39.49837 -77.01436 2014 ft 154 kts 66°
2026-04-27 20:07 39.50366 -77.00199 2312 ft 159 kts 58°
2026-04-27 20:07 39.50975 -76.99085 2871 ft 141 kts 54°
2026-04-27 20:07 39.51583 -76.98088 3163 ft 144 kts 52°
2026-04-27 20:08 39.52280 -76.97097 3319 ft 153 kts 45°
2026-04-27 20:08 39.53157 -76.96314 3531 ft 157 kts 27°
2026-04-27 20:08 39.54168 -76.95637 3628 ft 167 kts 30°
2026-04-27 20:08 39.55199 -76.94852 3704 ft 176 kts 33°
2026-04-27 20:09 39.56292 -76.94081 3760 ft 178 kts 31°
2026-04-27 20:09 39.57301 -76.93199 3815 ft 171 kts 43°
2026-04-27 20:09 39.58099 -76.92074 3778 ft 170 kts 53°
2026-04-27 20:09 39.58811 -76.90847 3738 ft 171 kts 57°
2026-04-27 20:10 39.59441 -76.89575 3770 ft 165 kts 60°
2026-04-27 20:10 39.60093 -76.88361 3758 ft 166 kts 56°
2026-04-27 20:10 39.60852 -76.87245 3783 ft 166 kts 45°
2026-04-27 20:10 39.61707 -76.86230 3783 ft 163 kts 41°
2026-04-27 20:11 39.62615 -76.85366 3957 ft 162 kts 37°
2026-04-27 20:11 39.63522 -76.84564 4306 ft 154 kts 37°
2026-04-27 20:11 39.64341 -76.83701 4614 ft 148 kts 43°
2026-04-27 20:11 39.65092 -76.82787 4843 ft 150 kts 47°
2026-04-27 20:12 39.65811 -76.81789 5028 ft 152 kts 50°
2026-04-27 20:12 39.66518 -76.80793 5285 ft 149 kts 47°
2026-04-27 20:12 39.67251 -76.79826 5453 ft 151 kts 47°
2026-04-27 20:12 39.67988 -76.78855 5655 ft 150 kts 47°
2026-04-27 20:13 39.68747 -76.77928 5858 ft 150 kts 42°
2026-04-27 20:13 39.69554 -76.77057 6017 ft 151 kts 40°
2026-04-27 20:13 39.70378 -76.76216 6193 ft 151 kts 38°
2026-04-27 20:13 39.71224 -76.75403 6357 ft 152 kts 38°
2026-04-27 20:14 39.72082 -76.74602 6511 ft 152 kts 40°
2026-04-27 20:14 39.72871 -76.73691 6661 ft 152 kts 45°
2026-04-27 20:14 39.73655 -76.72779 6812 ft 151 kts 43°
2026-04-27 20:14 39.74441 -76.71867 6926 ft 153 kts 43°
2026-04-27 20:15 39.75235 -76.70910 7023 ft 154 kts 43°
2026-04-27 20:15 39.76060 -76.69970 7056 ft 160 kts 40°
2026-04-27 20:15 39.76959 -76.69060 7073 ft 167 kts 38°
2026-04-27 20:15 39.77893 -76.68122 7064 ft 172 kts 40°
2026-04-27 20:16 39.78842 -76.67123 7063 ft 179 kts 41°
2026-04-27 20:16 39.79811 -76.66038 7058 ft 187 kts 43°
2026-04-27 20:16 39.80794 -76.64900 7063 ft 190 kts 43°
2026-04-27 20:16 39.81782 -76.63727 7044 ft 195 kts 44°
2026-04-27 20:17 39.82771 -76.62540 7058 ft 196 kts 43°
2026-04-27 20:17 39.83796 -76.61343 7063 ft 196 kts 43°
2026-04-27 20:17 39.84809 -76.60163 7061 ft 200 kts 44°
2026-04-27 20:17 39.85496 -76.59329 7060 ft 200 kts 44°
2026-04-27 20:18 39.86872 -76.57714 7051 ft 202 kts 42°
2026-04-27 20:18 39.87951 -76.56505 7056 ft 203 kts 41°
2026-04-27 20:18 39.89027 -76.55320 7055 ft 202 kts 41°
2026-04-27 20:18 39.90093 -76.54156 7056 ft 203 kts 41°
2026-04-27 20:19 39.91174 -76.52962 7055 ft 204 kts 41°
2026-04-27 20:19 39.92248 -76.51767 7054 ft 203 kts 42°
2026-04-27 20:19 39.93318 -76.50556 7056 ft 204 kts 42°
2026-04-27 20:19 39.94382 -76.49336 7056 ft 203 kts 43°
2026-04-27 20:20 39.95439 -76.48117 7054 ft 203 kts 43°
2026-04-27 20:20 39.96494 -76.46887 7054 ft 203 kts 43°
2026-04-27 20:20 39.97549 -76.45668 7055 ft 202 kts 42°
2026-04-27 20:20 39.98610 -76.44456 7057 ft 203 kts 42°
2026-04-27 20:21 39.99677 -76.43241 7053 ft 204 kts 41°
2026-04-27 20:21 40.00744 -76.42030 7053 ft 203 kts 42°
2026-04-27 20:21 40.01812 -76.40817 7055 ft 204 kts 42°
2026-04-27 20:21 40.02879 -76.39601 7057 ft 203 kts 42°
2026-04-27 20:22 40.03943 -76.38386 7052 ft 204 kts 42°
2026-04-27 20:22 40.05006 -76.37159 7056 ft 204 kts 42°
2026-04-27 20:22 40.06070 -76.35936 7055 ft 204 kts 42°
2026-04-27 20:22 40.07137 -76.34714 7060 ft 204 kts 42°
2026-04-27 20:23 40.08202 -76.33488 7058 ft 204 kts 42°
2026-04-27 20:23 40.09267 -76.32273 7055 ft 203 kts 42°
2026-04-27 20:23 40.10336 -76.31055 7050 ft 204 kts 42°
2026-04-27 20:23 40.11402 -76.29836 7055 ft 203 kts 43°
2026-04-27 20:24 40.12477 -76.28640 7055 ft 203 kts 43°
2026-04-27 20:24 40.13400 -76.27242 7048 ft 204 kts 58°
2026-04-27 20:24 40.13971 -76.25567 7052 ft 202 kts 75°
2026-04-27 20:24 40.14279 -76.23775 7058 ft 202 kts 78°
2026-04-27 20:25 40.14573 -76.21972 7053 ft 203 kts 77°
2026-04-27 20:25 40.14894 -76.20178 7047 ft 203 kts 76°
2026-04-27 20:25 40.15255 -76.18405 7055 ft 202 kts 74°
2026-04-27 20:25 40.15680 -76.16654 7049 ft 203 kts 71°
2026-04-27 20:26 40.16180 -76.14929 7049 ft 203 kts 68°
2026-04-27 20:26 40.16720 -76.13228 7053 ft 201 kts 66°
2026-04-27 20:26 40.17279 -76.11551 7055 ft 201 kts 65°
2026-04-27 20:26 40.17860 -76.09899 7051 ft 202 kts 65°
2026-04-27 20:27 40.18439 -76.08238 7054 ft 201 kts 65°
2026-04-27 20:27 40.18995 -76.06563 7053 ft 201 kts 67°
2026-04-27 20:27 40.19530 -76.04840 7046 ft 202 kts 68°
2026-04-27 20:27 40.20027 -76.03153 7043 ft 200 kts 69°
2026-04-27 20:28 40.20520 -76.01446 7039 ft 201 kts 69°
2026-04-27 20:28 40.21018 -75.99737 7042 ft 201 kts 69°
2026-04-27 20:28 40.21523 -75.98034 7046 ft 201 kts 68°
2026-04-27 20:28 40.21858 -75.96908 7046 ft 200 kts 68°
2026-04-27 20:29 40.22539 -75.94629 7045 ft 202 kts 68°
2026-04-27 20:29 40.23055 -75.92924 7061 ft 202 kts 68°
2026-04-27 20:29 40.23572 -75.91221 7057 ft 201 kts 68°
2026-04-27 20:29 40.24090 -75.89522 7060 ft 201 kts 68°
2026-04-27 20:30 40.24614 -75.87820 7066 ft 201 kts 68°
2026-04-27 20:30 40.25133 -75.86122 7061 ft 200 kts 68°
2026-04-27 20:30 40.25648 -75.84423 7064 ft 201 kts 68°
2026-04-27 20:30 40.26163 -75.82732 7066 ft 200 kts 68°
2026-04-27 20:31 40.26681 -75.81044 7070 ft 199 kts 68°
2026-04-27 20:31 40.27193 -75.79347 7060 ft 201 kts 68°
2026-04-27 20:31 40.27697 -75.77643 7067 ft 201 kts 69°
2026-04-27 20:31 40.28192 -75.75934 7064 ft 200 kts 68°
2026-04-27 20:32 40.28692 -75.74239 7075 ft 200 kts 68°
2026-04-27 20:32 40.29206 -75.72543 7061 ft 201 kts 67°
2026-04-27 20:32 40.29722 -75.70855 7070 ft 199 kts 68°
2026-04-27 20:32 40.30239 -75.69174 7067 ft 199 kts 67°
2026-04-27 20:33 40.30749 -75.67509 7064 ft 200 kts 68°
2026-04-27 20:33 40.31270 -75.65801 7066 ft 200 kts 68°
2026-04-27 20:33 40.31769 -75.64138 7069 ft 199 kts 68°
2026-04-27 20:33 40.32272 -75.62447 7069 ft 199 kts 68°
2026-04-27 20:34 40.32777 -75.60751 7070 ft 199 kts 68°
2026-04-27 20:34 40.33281 -75.59057 7067 ft 200 kts 68°
2026-04-27 20:34 40.33787 -75.57360 7069 ft 200 kts 68°
2026-04-27 20:34 40.34293 -75.55660 7068 ft 200 kts 68°
2026-04-27 20:35 40.34800 -75.53969 7067 ft 199 kts 68°
2026-04-27 20:35 40.35303 -75.52282 7067 ft 199 kts 68°
2026-04-27 20:35 40.35810 -75.50587 7061 ft 200 kts 68°
2026-04-27 20:35 40.36317 -75.48895 7060 ft 200 kts 68°
2026-04-27 20:36 40.36820 -75.47216 7055 ft 199 kts 68°
2026-04-27 20:36 40.37328 -75.45528 7059 ft 200 kts 68°
2026-04-27 20:36 40.37835 -75.43839 7060 ft 199 kts 68°
2026-04-27 20:36 40.38336 -75.42153 7074 ft 197 kts 68°
2026-04-27 20:37 40.38823 -75.40463 7060 ft 198 kts 68°
2026-04-27 20:37 40.39313 -75.38775 7056 ft 198 kts 68°
2026-04-27 20:37 40.39809 -75.37097 7058 ft 197 kts 67°
2026-04-27 20:37 40.40306 -75.35423 7065 ft 197 kts 67°
2026-04-27 20:38 40.40812 -75.33744 7065 ft 198 kts 67°
2026-04-27 20:38 40.41327 -75.32065 7060 ft 198 kts 67°
2026-04-27 20:38 40.41841 -75.30390 7064 ft 198 kts 67°
2026-04-27 20:38 40.42348 -75.28708 7063 ft 198 kts 68°
2026-04-27 20:39 40.42846 -75.27029 7064 ft 197 kts 68°
2026-04-27 20:39 40.43331 -75.25375 7059 ft 197 kts 68°
2026-04-27 20:39 40.43828 -75.23680 7059 ft 197 kts 68°
2026-04-27 20:39 40.44313 -75.22023 7058 ft 197 kts 68°
2026-04-27 20:40 40.44802 -75.20352 7054 ft 196 kts 68°
2026-04-27 20:40 40.45293 -75.18675 7055 ft 196 kts 68°
2026-04-27 20:40 40.45784 -75.17005 7055 ft 196 kts 68°
2026-04-27 20:40 40.46274 -75.15340 7062 ft 196 kts 68°
2026-04-27 20:41 40.46768 -75.13672 7052 ft 196 kts 68°
2026-04-27 20:41 40.47263 -75.11994 7050 ft 197 kts 68°
2026-04-27 20:41 40.47754 -75.10325 7048 ft 196 kts 68°
2026-04-27 20:41 40.48241 -75.08656 7047 ft 196 kts 68°
2026-04-27 20:42 40.48730 -75.06988 7055 ft 196 kts 68°
2026-04-27 20:42 40.49217 -75.05319 7053 ft 195 kts 68°
2026-04-27 20:42 40.49540 -75.04193 7043 ft 195 kts 68°
2026-04-27 20:42 40.50010 -75.02555 7016 ft 186 kts 68°
2026-04-27 20:43 40.50476 -75.01002 6757 ft 186 kts 66°
2026-04-27 20:43 40.50981 -74.99414 6289 ft 191 kts 66°
2026-04-27 20:43 40.51485 -74.97802 5945 ft 190 kts 69°
2026-04-27 20:43 40.51896 -74.96182 5697 ft 184 kts 70°
2026-04-27 20:44 40.52329 -74.94596 5375 ft 185 kts 68°
2026-04-27 20:44 40.52813 -74.93029 5035 ft 185 kts 65°
2026-04-27 20:44 40.53338 -74.91479 4733 ft 185 kts 67°
2026-04-27 20:44 40.53787 -74.89912 4457 ft 182 kts 72°
2026-04-27 20:45 40.54046 -74.88269 4088 ft 186 kts 86°
2026-04-27 20:45 40.53903 -74.86555 3686 ft 191 kts 102°
2026-04-27 20:45 40.53537 -74.84913 3503 ft 180 kts 107°
2026-04-27 20:45 40.53143 -74.83376 3241 ft 178 kts 105°
2026-04-27 20:46 40.52934 -74.81730 2744 ft 189 kts 92°
2026-04-27 20:46 40.52994 -74.80026 2372 ft 185 kts 85°
2026-04-27 20:46 40.53114 -74.78406 2179 ft 172 kts 85°
2026-04-27 20:46 40.53238 -74.76831 1832 ft 177 kts 84°
2026-04-27 20:47 40.53447 -74.75216 1447 ft 183 kts 80°
2026-04-27 20:47 40.53707 -74.73583 1434 ft 183 kts 78°
2026-04-27 20:47 40.53983 -74.71973 1461 ft 178 kts 77°
2026-04-27 20:47 40.54305 -74.70375 1462 ft 181 kts 77°
2026-04-27 20:48 40.54623 -74.68762 1462 ft 183 kts 77°
2026-04-27 20:48 40.54846 -74.67122 1458 ft 184 kts 90°
2026-04-27 20:48 40.54823 -74.65466 1449 ft 180 kts 91°
2026-04-27 20:48 40.54811 -74.63810 1452 ft 183 kts 90°
2026-04-27 20:49 40.54807 -74.62164 1458 ft 181 kts 90°
2026-04-27 20:49 40.54791 -74.60516 1481 ft 177 kts 90°
2026-04-27 20:49 40.54782 -74.58882 1475 ft 182 kts 90°
2026-04-27 20:49 40.54770 -74.57232 1464 ft 179 kts 90°
2026-04-27 20:50 40.54758 -74.55582 1455 ft 182 kts 90°
2026-04-27 20:50 40.54756 -74.53916 1455 ft 182 kts 90°
2026-04-27 20:50 40.54770 -74.52245 1460 ft 180 kts 90°
2026-04-27 20:50 40.54779 -74.50609 1465 ft 178 kts 90°
2026-04-27 20:51 40.54791 -74.48992 1486 ft 178 kts 90°
2026-04-27 20:51 40.54803 -74.47378 1471 ft 179 kts 90°
2026-04-27 20:51 40.54815 -74.45720 1481 ft 182 kts 90°
2026-04-27 20:51 40.54829 -74.44067 1480 ft 180 kts 90°
2026-04-27 20:52 40.54844 -74.42440 1503 ft 177 kts 90°
2026-04-27 20:52 40.54863 -74.40824 1496 ft 177 kts 89°
2026-04-27 20:52 40.54879 -74.39201 1492 ft 179 kts 90°
2026-04-27 20:52 40.54864 -74.37577 1490 ft 173 kts 91°
2026-04-27 20:53 40.54837 -74.36008 1378 ft 173 kts 91°
2026-04-27 20:53 40.54778 -74.34440 1235 ft 171 kts 95°
2026-04-27 20:53 40.54660 -74.32895 1079 ft 170 kts 97°
2026-04-27 20:53 40.54507 -74.31320 985 ft 177 kts 99°
2026-04-27 20:54 40.54047 -74.28132 1052 ft 176 kts 102°
2026-04-27 20:54 40.53817 -74.26546 1072 ft 176 kts 98°
2026-04-27 20:54 40.53759 -74.24920 1021 ft 180 kts 90°
2026-04-27 20:55 40.53820 -74.23263 1001 ft 181 kts 88°
2026-04-27 20:55 40.53828 -74.21599 966 ft 183 kts 94°
2026-04-27 20:55 40.53692 -74.19931 973 ft 182 kts 99°
2026-04-27 20:55 40.53474 -74.18297 918 ft 182 kts 102°
2026-04-27 20:56 40.53244 -74.16682 887 ft 178 kts 102°
2026-04-27 20:56 40.53025 -74.15109 873 ft 176 kts 100°
2026-04-27 20:56 40.52956 -74.13493 823 ft 179 kts 82°
2026-04-27 20:56 40.53424 -74.12040 963 ft 172 kts 56°
2026-04-27 20:57 40.54212 -74.10837 925 ft 176 kts 48°
2026-04-27 20:57 40.55063 -74.09687 1022 ft 173 kts 48°
2026-04-27 20:57 40.55919 -74.08555 1077 ft 176 kts 46°
2026-04-27 20:57 40.56828 -74.07458 1101 ft 178 kts 44°
2026-04-27 20:58 40.57772 -74.06382 1083 ft 181 kts 42°
2026-04-27 20:58 40.58828 -74.05465 1032 ft 185 kts 30°
2026-04-27 20:58 40.60043 -74.04895 993 ft 187 kts 16°
2026-04-27 20:58 40.61340 -74.04702 995 ft 187 kts
2026-04-27 20:59 40.62633 -74.04576 1043 ft 185 kts
2026-04-27 20:59 40.63912 -74.04354 1086 ft 185 kts 13°
2026-04-27 20:59 40.65181 -74.04057 1097 ft 186 kts 13°
2026-04-27 20:59 40.66449 -74.03770 1100 ft 186 kts 11°
2026-04-27 21:00 40.67744 -74.03557 1079 ft 192 kts
2026-04-27 21:00 40.69034 -74.03704 1197 ft 179 kts 334°
2026-04-27 21:00 40.69434 -74.04181 1321 ft 173 kts 301°
2026-04-27 21:00 40.69205 -74.05646 1058 ft 185 kts 213°
2026-04-27 21:01 40.68031 -74.05720 1050 ft 171 kts 141°
2026-04-27 21:01 40.67707 -74.04336 978 ft 170 kts 70°
2026-04-27 21:01 40.68626 -74.03394 856 ft 180 kts 21°
2026-04-27 21:01 40.69848 -74.02863 781 ft 189 kts 21°
2026-04-27 21:02 40.71085 -74.02262 798 ft 189 kts 21°
2026-04-27 21:02 40.72358 -74.01854 837 ft 189 kts 12°
2026-04-27 21:02 40.73667 -74.01604 834 ft 190 kts
2026-04-27 21:02 40.74962 -74.01334 838 ft 189 kts 17°
2026-04-27 21:03 40.76156 -74.00659 773 ft 192 kts 31°
2026-04-27 21:03 40.77334 -73.99834 853 ft 188 kts 30°
2026-04-27 21:03 40.78481 -73.98973 779 ft 192 kts 33°
2026-04-27 21:03 40.79619 -73.98114 833 ft 188 kts 30°
2026-04-27 21:04 40.80772 -73.97344 904 ft 185 kts 27°
2026-04-27 21:04 40.81959 -73.96673 866 ft 189 kts 26°
2026-04-27 21:04 40.83147 -73.95943 888 ft 187 kts 28°
2026-04-27 21:04 40.84306 -73.95214 948 ft 183 kts 27°
2026-04-27 21:05 40.85503 -73.94567 923 ft 190 kts 23°
2026-04-27 21:05 40.86733 -73.93924 945 ft 189 kts 25°
2026-04-27 21:05 40.87913 -73.93201 981 ft 185 kts 27°
2026-04-27 21:05 40.89085 -73.92505 998 ft 185 kts 25°
2026-04-27 21:06 40.90249 -73.91909 993 ft 188 kts 22°
2026-04-27 21:06 40.91501 -73.91402 1001 ft 188 kts 16°
2026-04-27 21:06 40.92776 -73.91020 1025 ft 187 kts 13°
2026-04-27 21:06 40.94073 -73.90731 1038 ft 190 kts 11°
2026-04-27 21:07 40.95370 -73.90434 1055 ft 189 kts 13°
2026-04-27 21:07 40.96665 -73.90104 1076 ft 189 kts 14°
2026-04-27 21:07 40.97943 -73.89694 1107 ft 189 kts 18°
2026-04-27 21:07 40.99189 -73.89159 1112 ft 188 kts 22°
2026-04-27 21:08 41.00409 -73.88510 1115 ft 190 kts 25°
2026-04-27 21:08 41.01636 -73.87894 1156 ft 188 kts 20°
2026-04-27 21:08 41.02928 -73.87519 1250 ft 190 kts 11°
2026-04-27 21:08 41.04195 -73.87276 1628 ft 181 kts
2026-04-27 21:09 41.05456 -73.87095 1788 ft 184 kts
2026-04-27 21:09 41.06760 -73.86955 1862 ft 191 kts
2026-04-27 21:09 41.08050 -73.86860 2157 ft 183 kts
2026-04-27 21:09 41.09286 -73.86716 2486 ft 179 kts 15°
2026-04-27 21:10 41.10469 -73.86082 2537 ft 186 kts 28°
2026-04-27 21:10 41.11650 -73.85204 2431 ft 199 kts 33°
2026-04-27 21:10 41.12823 -73.84234 2464 ft 196 kts 34°
2026-04-27 21:10 41.13965 -73.83249 2464 ft 196 kts 35°
2026-04-27 21:11 41.15118 -73.82269 2468 ft 196 kts 34°
2026-04-27 21:11 41.16239 -73.81248 2454 ft 195 kts 37°
2026-04-27 21:11 41.17338 -73.80190 2420 ft 196 kts 38°
2026-04-27 21:11 41.18449 -73.79141 2410 ft 195 kts 37°
2026-04-27 21:12 41.19555 -73.78104 2420 ft 194 kts 39°
2026-04-27 21:12 41.20594 -73.76962 2412 ft 193 kts 43°
2026-04-27 21:12 41.21605 -73.75810 2417 ft 192 kts 42°
2026-04-27 21:12 41.22618 -73.74646 2423 ft 192 kts 43°
2026-04-27 21:13 41.23618 -73.73458 2414 ft 193 kts 45°
2026-04-27 21:13 41.24580 -73.72236 2419 ft 189 kts 45°
2026-04-27 21:13 41.25513 -73.71022 2418 ft 187 kts 45°
2026-04-27 21:13 41.26445 -73.69810 2410 ft 188 kts 45°
2026-04-27 21:14 41.27378 -73.68597 2406 ft 188 kts 45°
2026-04-27 21:14 41.28310 -73.67390 2410 ft 186 kts 45°
2026-04-27 21:14 41.29243 -73.66184 2411 ft 187 kts 45°
2026-04-27 21:14 41.30166 -73.64962 2410 ft 188 kts 48°
2026-04-27 21:15 41.30995 -73.63620 2411 ft 186 kts 54°
2026-04-27 21:15 41.31732 -73.62203 2412 ft 186 kts 57°
2026-04-27 21:15 41.32446 -73.60764 2415 ft 187 kts 59°
2026-04-27 21:15 41.33101 -73.59275 2415 ft 187 kts 61°
2026-04-27 21:16 41.33743 -73.57796 2410 ft 187 kts 61°
2026-04-27 21:16 41.34388 -73.56302 2411 ft 186 kts 61°
2026-04-27 21:16 41.35031 -73.54810 2414 ft 186 kts 60°
2026-04-27 21:16 41.35676 -73.53326 2417 ft 186 kts 60°
2026-04-27 21:17 41.36329 -73.51828 2408 ft 187 kts 60°
2026-04-27 21:17 41.36978 -73.50334 2410 ft 186 kts 60°
2026-04-27 21:17 41.37617 -73.48845 2424 ft 186 kts 62°
2026-04-27 21:17 41.38232 -73.47315 2426 ft 189 kts 62°
2026-04-27 21:18 41.38849 -73.45769 2406 ft 189 kts 63°
2026-04-27 21:18 41.39472 -73.44226 2412 ft 188 kts 62°
2026-04-27 21:18 41.40092 -73.42692 2405 ft 188 kts 62°
2026-04-27 21:18 41.40711 -73.41165 2415 ft 186 kts 62°
2026-04-27 21:19 41.41313 -73.39631 2402 ft 186 kts 64°
2026-04-27 21:19 41.41874 -73.38077 2414 ft 186 kts 65°
2026-04-27 21:19 41.42427 -73.36524 2416 ft 185 kts 65°
2026-04-27 21:20 41.43417 -73.33379 2419 ft 184 kts 68°
2026-04-27 21:20 41.43910 -73.31791 2420 ft 187 kts 68°
2026-04-27 21:20 41.44406 -73.30196 2424 ft 186 kts 69°
2026-04-27 21:20 41.44888 -73.28634 2416 ft 182 kts 68°
2026-04-27 21:21 41.45395 -73.27083 2392 ft 183 kts 68°
2026-04-27 21:21 41.45892 -73.25522 2406 ft 183 kts 67°
2026-04-27 21:21 41.46382 -73.24010 2357 ft 172 kts 66°
2026-04-27 21:21 41.46854 -73.22513 2008 ft 181 kts 71°
2026-04-27 21:22 41.47242 -73.20835 1701 ft 194 kts 78°
2026-04-27 21:22 41.47469 -73.19115 1732 ft 186 kts 81°
2026-04-27 21:22 41.47671 -73.17451 1751 ft 181 kts 81°
2026-04-27 21:22 41.47757 -73.15766 1565 ft 188 kts 102°
2026-04-27 21:23 41.47013 -73.14365 1450 ft 189 kts 148°
2026-04-27 21:23 41.45803 -73.13636 1414 ft 190 kts 155°
2026-04-27 21:23 41.44564 -73.13132 1542 ft 186 kts 173°
2026-04-27 21:23 41.43306 -73.13179 1623 ft 170 kts 181°
2026-04-27 21:24 41.42230 -73.12992 1643 ft 144 kts 152°
2026-04-27 21:24 41.41766 -73.12011 1593 ft 124 kts 86°
2026-04-27 21:24 41.42222 -73.11175 1234 ft 118 kts 11°